Retour au catalogue

COSMOS 1491

GLONASS

ActifNavigationMEO
NORAD 14259·PAYLOAD·🇷🇺 Russia

Lancé Aug 10, 1983 depuis Baikonur Cosmodrome

Loading…

Prochains Passages (prochaines 24 heures)

TLE

FraisSource: Space-Track

Époque: Sep 14, 2026, 11:58 UTC

1 14259U 83084B   26257.49873390 -.00000030  00000-0  00000-0 0  9993
2 14259  65.0865  54.9390 0019148 302.3013  63.5308  2.15434789338066

Suivez COSMOS 1491 en temps réel avec AllMySat

Download on the App Store